Weather History for Douglas, WY

Change the Weather History Date:

Tuesday, August 27, 2013

  Actual Average Record
Temperature  
Mean Temperature 80 °F 67 °F  
Max Temperature 94 °F 84 °F 99 °F (2011)
Min Temperature 65 °F 50 °F 43 °F (2009)
Degree Days  
Heating Degree Days 0 2  
Month to date heating degree days 0 19  
Since 1 June heating degree days 56 144  
Since 1 July heating degree days 0 34  
Cooling Degree Days 15 4  
Month to date cooling degree days 188 162  
Year to date cooling degree days 588 444  
Since 1 June cooling degree days 572 438  
Growing Degree Days 28 (Base 50)    
Moisture  
Dew Point 52 °F    
Average Humidity 47    
Maximum Humidity 73    
Minimum Humidity 21    
Precipitation  
Precipitation 0.01 in 0.04 in 0.29 in (2014)
Month to date precipitation 0.15 0.97  
Year to date precipitation 5.94 9.88  
Sea Level Pressure  
Sea Level Pressure 29.95 in    
Wind  
Wind Speed 7 mph (West)    
Max Wind Speed 24 mph    
Max Gust Speed 31 mph    
Visibility 10 miles    
Events Rain , Thunderstorm    
T = Trace of Precipitation, MM = Missing Value Source: NWS Daily Summary

Daily Weather History Graph

Daily Weather History Graph

Search for Another Location

Airport:

Trip Planner

Search our weather history database for the weather conditions in past years. The results will help you decide how hot, cold, wet, or windy it might be!

Date:

Astronomy

Aug. 27, 2013 Rise Set
Actual Time 6:21 AM MDT 7:43 PM MDT
Civil Twilight 5:51 AM MDT 8:13 PM MDT
Nautical Twilight 5:16 AM MDT 8:48 PM MDT
Astronomical Twilight 4:38 AM MDT 9:26 PM MDT
Moon 11:28 PM MDT (8/27) 1:32 PM MDT (8/27)
Length of Visible Light 14h 21m
Length of Day
13h 22m
Waning Gibbous, 56% of the Moon is Illuminated
Aug 27
Waning Gibbous
Aug 28
Last Quarter
Sep 5
New
Sep 12
First Quarter
Sep 19
Full

Hourly Weather History & Observations

Time (MDT) Temp. Heat Index Dew Point Humidity Pressure Visibility Wind Dir Wind Speed Gust Speed Precip Events Conditions
12:53 AM 72.0 °F - 48.9 °F 44% 29.92 in 10.0 mi West 4.6 mph - N/A   Partly Cloudy
1:53 AM 73.0 °F - 50.0 °F 44% 29.90 in 10.0 mi South 5.8 mph - N/A   Clear
2:53 AM 69.1 °F - 50.0 °F 51% 29.92 in 10.0 mi Calm Calm - N/A   Clear
3:53 AM 70.0 °F - 51.1 °F 51% 29.93 in 10.0 mi Calm Calm - N/A   Clear
4:53 AM 68.0 °F - 51.1 °F 55% 29.94 in 10.0 mi Calm Calm - N/A   Clear
5:53 AM 68.0 °F - 51.1 °F 55% 29.94 in 10.0 mi WSW 8.1 mph - N/A   Clear
6:53 AM 68.0 °F - 51.1 °F 55% 29.96 in 10.0 mi South 8.1 mph - N/A   Clear
7:53 AM 73.0 °F - 52.0 °F 48% 29.97 in 10.0 mi WSW 12.7 mph - N/A   Clear
8:53 AM 71.1 °F - 54.0 °F 55% 29.99 in 10.0 mi Calm Calm - N/A   Clear
9:53 AM 82.0 °F - 50.0 °F 33% 29.96 in 10.0 mi WNW 6.9 mph 20.7 mph N/A   Clear
10:53 AM 87.1 °F - 50.0 °F 28% 29.94 in 10.0 mi NW 11.5 mph - N/A   Clear
11:53 AM 89.1 °F - 48.0 °F 24% 29.93 in 10.0 mi NW 8.1 mph - N/A   Clear
12:53 PM 90.0 °F - 48.9 °F 24% 29.91 in 10.0 mi West 8.1 mph - N/A   Partly Cloudy
1:53 PM 91.9 °F - 48.9 °F 23% 29.90 in 10.0 mi WNW 11.5 mph 19.6 mph N/A   Partly Cloudy
2:53 PM 91.0 °F - 48.9 °F 23% 29.88 in 10.0 mi NW 11.5 mph - N/A   Scattered Clouds
3:53 PM 91.9 °F - 46.9 °F 21% 29.86 in 10.0 mi Variable 3.5 mph 17.3 mph N/A   Partly Cloudy
4:53 PM 88.0 °F - 46.0 °F 23% 29.87 in 10.0 mi West 3.5 mph - N/A   Partly Cloudy
5:53 PM 89.1 °F - 46.0 °F 22% 29.87 in 10.0 mi SE 6.9 mph - N/A   Scattered Clouds
6:20 PM 80.6 °F 80.3 °F 53.6 °F 39% 30.10 in 10.0 mi South 24.2 mph 29.9 mph 0.00 in Thunderstorm Thunderstorm
6:45 PM 69.8 °F - 59.0 °F 68% 30.14 in 10.0 mi WSW 19.6 mph 28.8 mph 0.00 in Rain , Thunderstorm Light Thunderstorms and Rain
6:53 PM 70.0 °F - 57.9 °F 65% 29.98 in 10.0 mi West 23.0 mph 29.9 mph 0.00 in Rain , Thunderstorm Light Thunderstorms and Rain
7:00 PM 71.6 °F - 57.2 °F 60% 30.14 in 10.0 mi West 17.3 mph 29.9 mph 0.00 in Rain , Thunderstorm Light Rain
7:29 PM 69.8 °F - 59.0 °F 68% 30.12 in 10.0 mi NNW 11.5 mph - 0.00 in   Mostly Cloudy
7:53 PM 70.0 °F - 57.9 °F 65% 29.94 in 10.0 mi North 8.1 mph - 0.00 in   Clear
8:53 PM 69.1 °F - 57.0 °F 65% 29.96 in 10.0 mi North 4.6 mph - N/A   Clear
9:53 PM 66.9 °F - 57.9 °F 73% 29.93 in 10.0 mi South 10.4 mph - N/A   Clear
10:53 PM 68.0 °F - 55.0 °F 63% 29.92 in 10.0 mi ESE 5.8 mph - N/A   Scattered Clouds
11:53 PM 64.9 °F - 55.0 °F 70% 29.92 in 10.0 mi SE 4.6 mph - 0.01 in   Partly Cloudy